カタログに戻る

STARLINK-34532

運用中通信VLEO
NORAD 64607·PAYLOAD·🇺🇸 United States

打ち上げ Jun 25, 2025 から Cape Canaveral Space Force Station

Loading…

次のパス (今後24時間)

TLE

最新Source: CelesTrak SupGP

元期: Sep 14, 2026, 20:56 UTC

1 64607C 25137P   26257.87270833  .00001090  00000+0  32179-4 0  2573
2 64607  53.1579 183.6983 0001301  88.4441  81.3022 15.34401092    13

AllMySatでSTARLINK-34532をリアルタイム追跡

Download on the App Store